Temperature
16 16 16 16 13 11 12 13 13 13 13 13 13 13 12 12 13 14 13 14 13 13 13 13 13 12 12 12 13 13 13 13 13 13 13 14 14 14 14 14 14 14 14 14 14 14 14 14 14
15 16 16 15 12 12 12 12 12 13 13 13 13 13 12 12 13 13 13 13 13 13 13 12 12 12 12 12 12 12 13 13 13 13 13 13 13 13 13 13 13 13 14 14 14 14 14 14 14
15 15 15 11 11 12 13 12 12 12 13 13 12 12 12 12 13 13 13 13 13 12 12 12 12 12 12 12 12 12 12 12 13 13 13 13 13 13 13 13 13 13 13 13 13 13 13 13 13
15 15 14 11 12 11 12 12 12 12 13 12 12 11 12 12 12 13 13 13 12 12 12 12 11 11 11 12 12 12 12 12 12 13 13 13 13 13 13 13 13 13 13 13 13 13 13 13 13
15 14 11 11 11 11 11 12 12 12 12 12 12 11 11 12 12 12 12 12 12 12 12 11 11 11 11 11 11 11 11 12 12 12 12 12 12 13 13 13 13 13 13 13 13 13 13 13 13
14 11 11 11 11 11 11 12 12 11 11 11 11 11 11 12 12 12 12 12 11 11 11 11 11 11 11 11 11 11 11 11 12 12 12 12 12 12 12 12 12 12 12 12 12 12 12 12 12
13 9 10 11 11 11 11 12 11 11 10 11 12 10 11 12 12 12 12 11 11 11 11 11 11 11 11 11 11 11 11 11 11 11 11 12 12 12 12 12 12 12 12 12 12 12 12 12 12
13 9 10 10 11 11 11 12 12 12 11 11 11 10 10 11 11 11 11 11 10 10 10 10 10 10 10 10 10 11 11 11 11 11 11 11 11 11 11 12 12 12 12 12 12 12 12 12 12
13 9 10 10 10 11 11 11 11 11 11 11 11 11 11 11 11 11 11 10 10 10 10 10 10 10 10 10 10 10 10 10 10 10 11 11 11 11 11 11 11 11 11 11 11 11 11 11 11
11 9 10 10 10 10 10 10 10 10 9 9 10 10 11 11 11 10 10 10 10 10 10 9 9 10 10 10 10 10 10 10 10 10 10 10 11 11 11 11 11 11 11 11 11 11 11 11 11
9 9 9 10 10 10 10 10 10 9 8 9 10 10 10 10 10 10 10 9 9 9 9 9 9 9 9 9 9 9 9 9 10 10 10 10 10 10 10 10 10 10 11 11 11 11 11 11 11
8 8 9 9 10 10 9 9 9 9 9 10 10 10 10 9 9 9 9 9 9 9 9 9 9 9 9 9 9 9 9 9 9 9 9 10 10 10 10 10 10 10 10 10 10 10 10 10 10
7 7 8 8 9 9 9 8 8 8 9 9 9 9 9 9 9 9 9 9 9 9 8 9 9 8 8 8 9 9 9 9 9 9 9 9 9 9 9 9 10 10 10 10 10 10 10 10 10
7 7 7 8 8 8 7 6 7 7 8 8 8 8 8 8 8 8 8 8 8 9 8 8 8 8 8 8 8 8 8 8 8 9 9 9 9 9 9 9 9 9 9 9 9 9 9 9 9
7 7 7 7 7 7 7 6 6 7 7 7 7 7 7 7 8 8 8 8 8 8 8 8 8 8 8 8 8 8 8 8 8 8 8 8 8 8 8 8 9 9 9 9 9 9 9 9 9
7 6 7 6 6 6 7 7 6 6 6 6 6 6 6 6 7 7 7 8 8 8 8 7 7 7 7 7 7 7 7 7 7 7 7 7 7 8 8 8 8 8 8 8 8 8 8 8 8
5 6 6 6 5 5 5 5 5 5 5 4 5 5 5 5 6 6 7 7 7 7 7 7 7 7 7 7 7 7 7 7 7 7 7 7 7 7 7 7 8 7 8 8 8 8 8 8 8
6 5 6 6 5 4 4 4 3 4 4 3 4 4 4 5 5 6 6 6 6 7 7 7 6 6 6 6 6 6 6 6 6 6 6 7 7 7 7 7 7 7 7 7 7 7 7 7 7
5 5 5 5 4 4 3 3 3 3 2 2 2 3 3 4 4 5 5 5 6 6 6 6 6 6 6 6 6 6 6 6 6 6 6 6 6 6 6 6 6 6 7 7 7 7 7 7 7
5 5 4 4 4 4 2 2 2 2 1 2 2 2 2 3 4 4 5 5 5 5 5 5 6 5 5 5 5 5 5 6 6 6 6 6 6 6 6 6 6 6 6 6 6 6 6 6 6
5 4 4 4 3 2 2 3 2 2 1 1 1 2 2 2 3 3 4 4 4 5 5 5 5 5 5 5 5 5 5 5 5 5 5 5 5 5 5 5 5 5 5 5 5 5 5 5 5
4 4 4 3 3 2 2 3 2 1 0 0 0 1 1 2 2 3 3 4 4 4 4 4 4 4 4 4 4 4 4 4 5 4 4 5 5 5 5 5 5 5 5 5 5 5 5 5 5
3 3 3 2 2 1 1 1 2 0 1 1 0 0 1 1 2 2 3 3 3 3 4 4 4 4 4 4 4 4 4 4 4 4 4 4 4 4 4 4 4 4 4 4 4 4 4 4 4
2 2 2 1 1 2 1 1 1 0 1 1 0 0 1 1 1 2 2 2 3 3 3 3 3 3 3 3 3 3 3 3 3 3 3 3 3 3 3 3 3 3 3 4 4 4 4 4 4
2 2 2 2 1 2 0 0 1 0 -0 -0 -0 0 0 0 1 1 1 2 2 2 2 2 2 3 3 2 2 2 2 2 2 2 2 3 3 3 3 3 3 3 3 3 3 3 3 3 3
1 2 2 3 2 1 -0 -0 0 -1 -1 -1 -1 -0 -0 -0 0 1 1 1 1 1 1 2 2 2 2 2 2 2 2 2 2 2 2 2 2 2 2 2 2 2 2 2 2 2 2 2 2
1 0 1 -0 -1 -0 0 -1 -1 -1 -1 -2 -2 -1 -1 -0 -0 0 0 0 1 1 1 1 1 1 1 1 1 1 1 1 1 1 1 1 1 1 1 1 1 1 1 1 2 2 2 2 2
0 -1 -1 -0 1 1 0 -1 0 -0 -1 -2 -2 -2 -1 -1 -1 -1 -0 -0 -0 0 0 0 0 0 0 1 1 1 1 1 1 1 1 1 1 1 1 1 1 1 1 1 1 1 1 1 1
-1 -1 -1 -2 -1 -0 0 1 -1 -1 -1 -2 -3 -2 -1 -1 -1 -1 -1 -1 -1 -1 -1 -1 -1 -0 -0 -0 -0 -0 -0 0 0 0 0 0 0 0 0 0 0 0 0 0 0 0 0 0 0
-2 -2 -2 -1 -1 -3 -2 -0 -1 -3 -3 -3 -3 -2 -2 -1 -2 -2 -1 -1 -1 -1 -1 -1 -1 -1 -1 -1 -1 -1 -1 -1 -1 -1 -0 -0 -0 -0 -0 -0 -0 -0 -0 -0 -0 -0 -0 -0 -0
Wind_Speed
5 3 2 4 5 3 2 3 2 1 1 1 1 3 5 4 4 3 1 1 2 2 3 5 7 9 9 9 9 9 9 9 10 10 10 10 10 10 11 11 12 12 13 13 14 14 15 15 15
2 2 4 5 4 1 4 4 4 3 2 2 2 2 2 0 0 0 0 1 2 4 4 5 8 9 9 9 9 9 9 9 9 9 10 10 10 10 10 11 11 12 12 13 13 14 14 14 15
1 4 4 4 3 5 4 3 5 2 1 1 2 2 1 1 0 1 1 1 3 4 4 5 9 9 9 9 9 9 9 8 9 9 10 10 10 9 10 11 11 11 11 12 13 13 13 13 14
3 4 4 3 4 5 4 2 3 2 1 1 2 1 1 1 1 1 0 3 4 3 5 5 8 9 9 9 9 9 8 8 9 9 9 9 9 9 9 10 10 10 10 11 12 12 12 13 13
3 4 3 1 5 4 3 2 2 2 1 1 2 2 1 2 2 2 3 4 4 3 4 5 7 9 9 9 9 8 8 8 8 9 9 9 9 9 9 9 9 10 10 10 11 11 11 12 12
3 3 3 6 7 4 3 2 2 2 1 1 2 2 2 2 2 2 3 3 4 4 4 4 6 8 8 8 8 8 8 8 8 8 8 8 8 8 9 8 9 9 9 9 10 10 11 11 11
4 4 4 6 5 4 4 3 4 3 2 3 3 2 2 1 1 2 4 4 4 4 4 4 5 6 7 7 8 8 7 7 7 8 8 8 8 8 7 7 8 9 9 9 9 10 10 10 10
4 4 3 4 5 5 3 2 2 4 3 1 3 4 4 2 2 4 4 4 4 4 4 4 4 5 6 6 7 8 8 8 7 8 8 8 8 8 7 8 8 8 8 9 9 10 10 10 10
4 2 6 7 6 4 2 2 0 1 3 1 1 1 2 3 5 5 4 3 2 2 2 3 3 4 5 6 6 7 8 8 8 8 9 9 8 8 8 8 8 8 8 8 9 10 10 10 10
4 5 8 4 4 3 2 2 2 2 1 0 1 2 3 5 6 6 4 4 3 2 1 2 2 3 4 4 5 6 6 7 8 7 8 8 8 8 8 8 9 8 8 8 9 9 9 9 9
3 6 3 2 2 2 2 2 2 4 3 4 4 2 3 4 4 4 4 3 3 2 2 1 2 3 4 4 5 5 6 6 7 7 7 7 7 7 7 7 8 8 8 8 8 9 9 8 8
2 2 1 2 2 0 2 2 2 4 4 2 3 5 5 5 5 4 4 2 1 1 1 1 1 2 3 4 4 5 4 5 4 5 6 6 5 5 5 5 6 6 7 7 7 7 8 8 8
2 1 1 1 2 2 1 1 2 3 3 1 3 5 5 5 3 2 1 1 1 2 2 1 1 2 3 3 3 4 4 4 4 5 5 6 4 4 4 4 5 5 6 6 5 5 6 6 7
1 1 1 2 2 1 1 2 1 4 1 2 3 3 3 3 2 1 0 1 1 2 2 1 2 2 3 3 3 3 4 4 4 4 5 6 5 4 4 3 3 4 4 5 5 5 5 5 5
1 1 3 1 0 1 1 4 5 3 1 1 1 1 1 1 0 1 2 2 2 2 2 2 2 2 2 3 3 3 4 4 4 4 5 5 5 5 4 3 3 3 4 5 5 6 6 4 4
2 1 3 2 1 0 3 8 4 1 2 1 1 1 1 1 1 2 2 2 1 1 1 2 1 2 2 2 3 3 4 4 4 4 5 5 5 5 4 3 2 3 4 4 4 4 3 3 3
2 2 4 4 1 1 3 7 3 1 1 2 2 1 1 2 3 3 3 2 2 1 1 1 1 2 2 2 2 3 4 3 3 4 4 4 5 5 4 3 3 4 4 3 3 2 2 3 3
4 4 4 5 1 1 4 6 4 2 2 3 3 2 2 2 4 3 2 3 2 2 1 1 1 1 2 2 2 2 3 2 2 2 3 4 4 5 4 3 4 4 3 2 2 3 2 2 2
3 4 4 4 1 1 5 7 7 4 2 3 3 3 4 4 3 3 3 3 3 3 3 2 1 1 2 1 1 1 1 1 1 1 2 3 3 4 4 4 3 3 3 2 2 3 3 2 2
2 3 4 3 1 1 4 7 6 4 3 3 3 4 4 3 3 3 3 3 3 3 3 2 1 0 1 1 1 1 1 1 1 1 2 2 3 4 4 4 3 3 3 3 2 2 2 1 1
3 5 5 4 3 1 3 6 4 2 2 1 2 3 3 3 3 2 2 2 2 2 2 1 2 1 1 1 2 2 2 2 1 1 0 1 2 3 3 3 3 3 3 3 3 3 3 2 0
6 3 3 2 1 3 0 5 5 3 3 4 4 3 3 3 2 2 1 1 1 1 1 2 2 3 2 2 2 2 2 1 1 1 1 0 1 2 2 3 3 3 3 2 3 2 2 3 2
4 0 1 2 3 2 1 3 7 2 4 6 5 4 4 3 3 2 2 1 1 1 1 2 2 3 3 2 2 2 1 0 0 1 1 1 0 1 2 2 2 2 2 3 2 2 2 2 3
2 2 2 3 2 4 5 5 7 3 5 5 4 3 3 2 2 1 1 1 1 2 2 2 3 3 3 3 3 1 1 1 1 0 0 1 0 0 0 1 1 1 2 2 3 3 2 2 2
3 3 2 3 2 6 3 4 8 5 4 4 5 4 3 1 1 0 1 1 1 2 2 2 2 2 3 3 2 2 1 1 2 1 1 1 1 1 1 0 1 1 2 2 2 2 2 2 2
2 4 5 4 5 5 2 7 6 3 3 3 3 2 2 2 1 1 1 1 0 1 1 1 1 2 2 2 2 2 1 1 0 1 1 1 1 1 1 1 1 1 2 2 2 2 2 2 3
3 3 2 4 0 3 6 6 7 2 3 2 2 2 3 2 1 1 1 0 0 0 1 1 1 1 1 1 2 2 2 1 1 1 1 1 1 1 1 1 1 1 2 2 2 2 2 2 3
2 5 4 4 3 5 6 5 4 4 5 4 3 3 3 3 2 1 1 1 1 1 0 1 1 1 1 1 1 2 2 1 1 1 2 1 1 1 1 1 1 1 2 2 2 2 2 2 2
2 2 3 3 3 4 5 6 4 5 4 4 5 4 3 3 2 2 1 1 0 0 0 1 1 2 2 2 2 2 2 2 1 1 2 2 1 1 2 2 1 2 2 2 2 3 3 3 3
2 4 5 4 4 4 4 7 3 2 2 3 4 4 3 2 2 2 1 1 1 1 1 1 1 1 1 2 2 2 2 1 1 1 2 1 2 2 2 2 1 2 2 2 3 3 3 4 4
Wind_Direction
351 21 57 56 60 57 228 241 223 220 246 268 114 127 146 153 166 195 316 140 101 125 155 152 141 130 123 116 107 99 95 92 88 89 92 94 95 95 92 90 89 89 88 88 89 88 86 85 85
7 43 57 64 105 183 255 233 224 220 189 101 61 73 95 176 323 94 355 251 116 125 131 140 139 131 125 118 111 105 102 97 93 90 92 93 94 94 93 89 89 89 90 90 91 89 86 86 87
70 53 85 87 139 192 225 222 217 241 114 98 78 41 124 199 249 213 271 172 104 109 120 135 137 133 127 121 116 112 108 105 99 93 90 91 92 93 92 90 89 89 91 92 93 91 89 88 88
81 55 63 96 208 216 219 226 186 149 53 67 123 48 316 355 265 239 105 116 110 103 116 134 140 136 131 125 122 117 113 109 103 97 93 90 90 91 92 91 90 91 93 96 95 94 91 90 90
64 87 90 204 234 243 249 245 171 150 158 87 128 154 264 347 16 90 114 112 124 115 113 129 141 137 132 129 128 124 121 114 106 100 97 94 90 89 91 90 91 92 95 98 97 96 96 93 91
71 85 143 222 233 248 251 225 178 175 175 130 139 153 240 6 47 102 118 110 109 112 100 115 132 132 134 132 130 126 124 117 110 104 100 96 92 90 88 89 92 95 95 98 97 96 95 94 92
123 126 191 211 224 241 237 188 185 186 203 216 174 157 266 312 7 116 108 97 92 94 87 87 101 113 124 127 128 124 123 118 113 108 103 98 95 93 90 88 89 92 94 96 99 96 94 92 92
128 127 188 212 211 234 220 171 184 181 203 159 146 173 235 248 138 108 96 92 90 84 75 70 81 93 107 119 126 122 120 117 111 106 99 93 89 85 83 85 85 87 93 94 99 97 94 92 89
105 133 218 215 202 220 182 166 213 116 120 87 100 237 271 127 126 115 103 105 103 95 73 66 68 83 99 113 123 119 116 114 109 101 98 91 84 80 77 79 82 84 88 93 96 97 94 91 85
121 198 224 216 201 189 184 183 172 105 97 292 342 12 80 121 138 146 156 171 176 176 157 79 82 89 102 111 111 108 107 107 104 102 101 96 90 85 81 78 76 76 79 85 86 91 91 87 80
149 199 216 260 270 182 175 170 151 149 217 227 221 210 138 143 152 162 171 178 189 191 178 137 103 105 109 109 109 105 107 105 104 104 104 101 93 85 79 74 70 71 74 74 79 82 84 85 82
144 259 236 286 333 293 197 181 193 197 225 255 195 159 153 166 178 186 188 187 177 175 195 172 128 115 116 115 116 115 111 111 111 114 114 107 93 84 81 77 76 76 77 76 76 81 83 84 82
205 250 320 350 22 32 50 246 222 254 298 7 107 134 155 174 192 197 186 178 171 195 203 201 149 137 124 117 117 119 119 126 132 128 125 122 111 102 89 81 82 80 83 85 84 84 84 81 78
198 248 308 334 334 330 39 332 277 270 340 84 127 159 174 183 187 149 114 206 218 215 213 194 171 146 134 132 127 129 132 135 134 131 138 138 130 121 107 90 82 77 83 88 95 97 92 84 83
118 39 335 333 313 263 130 291 246 261 103 137 174 199 200 214 197 220 231 229 226 224 214 195 171 132 136 139 137 132 135 138 137 136 142 143 136 130 122 108 95 88 92 90 93 92 90 85 79
76 79 277 281 164 327 157 254 268 32 139 213 241 248 238 267 302 312 315 305 281 214 195 193 173 143 131 130 132 132 134 139 143 143 143 142 138 136 127 122 118 114 105 97 96 92 89 84 79
48 237 250 278 184 131 188 249 289 351 187 245 258 260 264 312 331 333 343 341 333 270 187 162 147 155 143 120 119 122 128 130 136 138 140 143 144 143 137 133 126 121 109 98 100 92 107 107 89
221 228 242 248 259 162 226 251 283 302 250 255 271 282 282 278 285 313 337 352 4 25 51 100 121 121 107 102 100 104 113 111 115 123 129 134 144 148 140 127 121 120 111 103 100 107 93 111 113
176 200 242 253 271 228 245 262 274 276 267 272 284 287 286 283 306 347 6 15 23 31 39 48 74 104 122 117 130 141 164 173 145 126 127 139 144 147 143 131 125 125 131 138 124 113 107 93 101
191 230 257 284 337 232 269 270 267 248 234 239 254 270 280 306 338 340 360 18 27 30 21 22 40 74 152 159 156 155 137 140 130 106 96 126 138 143 147 138 146 143 135 132 127 117 117 112 110
225 216 237 255 330 354 320 291 271 259 232 292 274 265 275 268 280 298 327 349 8 7 2 10 16 17 29 90 97 84 79 70 64 41 65 64 131 134 134 147 143 147 150 162 166 160 149 159 177
244 236 224 220 230 280 356 281 271 272 289 292 289 292 279 278 268 275 283 322 328 316 356 19 29 39 40 83 116 133 147 169 200 192 201 123 105 123 138 149 150 149 151 157 178 157 169 155 172
219 216 175 184 186 277 251 233 279 312 280 280 280 280 282 267 250 250 251 255 305 355 26 29 46 46 42 56 109 132 115 119 105 113 131 130 89 124 142 147 149 154 165 167 163 162 174 173 174
150 87 79 74 108 255 222 201 271 237 241 271 281 284 276 274 270 282 313 46 28 24 36 41 51 39 32 42 54 77 120 119 106 134 171 181 198 197 106 142 145 166 177 181 180 173 187 191 181
70 89 13 333 291 249 200 210 250 242 244 245 265 282 287 286 267 311 21 27 9 10 20 35 52 33 27 35 38 47 56 159 181 203 218 221 218 244 271 239 185 197 207 196 176 172 201 203 193
194 154 169 221 246 279 245 235 252 253 286 281 281 291 334 334 291 258 250 209 260 335 359 25 44 20 22 29 17 24 47 52 318 258 243 251 258 256 245 222 227 227 214 207 189 191 210 207 212
148 184 169 143 176 273 263 279 299 282 303 324 331 339 326 319 298 273 301 279 264 303 318 322 358 4 8 7 15 17 16 30 358 329 283 270 278 289 264 232 232 231 216 209 198 214 218 213 220
130 147 118 150 207 263 281 267 254 270 270 288 301 291 293 313 311 296 280 284 291 284 314 15 7 323 343 1 4 353 349 343 343 335 324 295 285 297 273 244 241 238 223 213 210 227 222 216 230
130 139 140 157 180 195 265 270 229 222 237 249 262 271 277 286 285 282 280 292 308 6 37 34 6 9 2 352 351 355 342 339 347 339 318 318 297 264 262 251 244 255 258 242 232 235 226 220 230
172 180 164 187 232 200 219 267 275 224 264 273 281 289 291 287 290 290 290 308 326 304 338 360 355 351 337 337 344 343 337 346 351 334 326 320 316 302 279 256 249 257 260 254 241 238 233 228 232
Height
1503 1505 1507 1508 1513 1524 1526 1522 1519 1518 1517 1516 1516 1517 1517 1520 1523 1526 1522 1520 1522 1524 1526 1528 1529 1531 1532 1533 1535 1535 1537 1537 1538 1538 1539 1540 1541 1541 1542 1542 1543 1544 1545 1545 1546 1547 1547 1548 1548
1503 1505 1508 1509 1518 1528 1525 1519 1518 1516 1515 1515 1516 1516 1517 1518 1519 1519 1519 1520 1522 1524 1526 1527 1529 1531 1532 1533 1534 1535 1536 1537 1538 1539 1539 1540 1541 1542 1542 1543 1544 1544 1545 1546 1547 1547 1548 1549 1549
1503 1505 1508 1512 1521 1524 1519 1516 1515 1514 1515 1515 1516 1516 1517 1518 1518 1518 1519 1520 1522 1524 1526 1527 1529 1530 1532 1533 1534 1535 1536 1537 1538 1539 1539 1540 1541 1542 1543 1543 1544 1545 1546 1546 1547 1548 1549 1549 1550
1504 1506 1508 1516 1518 1518 1515 1513 1513 1514 1515 1515 1516 1517 1517 1518 1518 1519 1519 1520 1522 1524 1525 1527 1528 1530 1531 1533 1534 1535 1536 1537 1538 1539 1539 1540 1541 1542 1543 1544 1544 1545 1546 1547 1548 1549 1549 1550 1551
1503 1505 1513 1519 1517 1515 1513 1512 1513 1514 1515 1515 1516 1516 1516 1518 1518 1518 1519 1520 1522 1523 1525 1526 1528 1530 1531 1532 1533 1534 1535 1537 1538 1538 1539 1540 1541 1542 1543 1544 1545 1545 1546 1547 1548 1549 1550 1550 1551
1503 1505 1516 1518 1514 1513 1512 1512 1512 1513 1514 1515 1516 1516 1516 1517 1517 1518 1519 1520 1522 1523 1525 1526 1528 1529 1530 1531 1533 1534 1535 1536 1537 1538 1539 1540 1541 1542 1543 1544 1545 1546 1546 1547 1548 1549 1550 1551 1551
1503 1509 1514 1513 1513 1512 1510 1510 1512 1512 1513 1514 1515 1516 1515 1516 1517 1518 1519 1520 1521 1523 1524 1526 1527 1528 1530 1531 1532 1533 1534 1535 1537 1537 1538 1539 1540 1542 1543 1544 1545 1545 1546 1547 1548 1549 1550 1550 1551
1501 1507 1512 1513 1512 1510 1509 1509 1510 1511 1512 1514 1514 1515 1514 1514 1515 1516 1518 1519 1521 1522 1523 1525 1526 1527 1528 1530 1531 1532 1533 1535 1536 1537 1538 1539 1540 1541 1542 1543 1544 1545 1546 1546 1547 1548 1549 1550 1551
1501 1510 1511 1509 1509 1508 1507 1508 1509 1510 1511 1512 1512 1513 1513 1513 1514 1515 1516 1518 1519 1521 1522 1524 1525 1526 1527 1529 1530 1531 1532 1534 1535 1536 1537 1538 1539 1540 1542 1543 1544 1544 1545 1546 1547 1547 1549 1550 1551
1500 1508 1504 1504 1505 1505 1506 1507 1508 1509 1509 1510 1511 1511 1511 1512 1512 1513 1514 1515 1517 1518 1520 1522 1523 1525 1526 1527 1528 1530 1531 1532 1533 1535 1536 1537 1538 1540 1541 1542 1543 1544 1545 1545 1546 1547 1548 1549 1550
1499 1503 1503 1503 1504 1504 1505 1507 1507 1508 1509 1509 1509 1509 1509 1510 1511 1512 1513 1514 1516 1517 1519 1520 1522 1523 1524 1525 1526 1528 1529 1531 1532 1533 1535 1536 1537 1538 1540 1541 1542 1543 1543 1544 1545 1546 1547 1548 1549
1501 1502 1502 1503 1504 1504 1505 1506 1507 1507 1507 1507 1508 1508 1508 1509 1509 1510 1511 1513 1514 1516 1517 1518 1520 1521 1522 1524 1525 1526 1527 1529 1530 1532 1533 1534 1535 1537 1538 1539 1540 1541 1542 1543 1544 1545 1546 1547 1549
1501 1502 1503 1503 1504 1504 1504 1505 1505 1505 1506 1506 1506 1506 1507 1507 1508 1509 1511 1512 1513 1514 1515 1516 1518 1519 1520 1521 1523 1524 1525 1527 1528 1530 1531 1532 1533 1534 1536 1537 1538 1540 1541 1542 1543 1544 1545 1546 1547
1501 1502 1502 1503 1503 1504 1505 1506 1506 1503 1505 1504 1504 1504 1505 1506 1507 1507 1508 1509 1510 1511 1513 1514 1515 1517 1518 1519 1521 1522 1523 1524 1526 1527 1529 1530 1531 1532 1534 1535 1536 1537 1539 1540 1541 1542 1543 1545 1546
1501 1503 1503 1503 1503 1504 1505 1506 1504 1503 1503 1503 1503 1503 1504 1504 1505 1505 1506 1507 1508 1509 1511 1512 1513 1514 1515 1517 1518 1519 1520 1522 1523 1525 1526 1528 1529 1530 1531 1533 1534 1535 1537 1538 1539 1540 1541 1543 1544
1502 1505 1506 1503 1503 1504 1508 1505 1502 1502 1502 1502 1502 1502 1502 1502 1503 1504 1505 1506 1506 1507 1508 1509 1510 1512 1513 1514 1515 1517 1518 1520 1521 1523 1524 1525 1527 1528 1529 1530 1531 1533 1534 1536 1537 1538 1539 1541 1542
1506 1508 1506 1504 1503 1504 1506 1504 1502 1501 1501 1500 1500 1500 1500 1501 1501 1501 1502 1503 1504 1505 1506 1507 1508 1509 1510 1511 1513 1514 1516 1517 1519 1520 1521 1523 1524 1525 1526 1528 1529 1530 1532 1533 1535 1536 1537 1538 1539
1505 1507 1505 1504 1504 1505 1505 1504 1501 1500 1500 1499 1499 1499 1499 1498 1499 1500 1501 1501 1502 1503 1503 1504 1505 1507 1508 1509 1510 1512 1513 1515 1516 1517 1519 1520 1522 1523 1524 1525 1526 1528 1529 1530 1532 1533 1535 1536 1537
1502 1504 1506 1504 1503 1505 1505 1503 1501 1499 1499 1498 1497 1497 1497 1497 1498 1498 1499 1499 1499 1500 1501 1502 1503 1504 1505 1506 1507 1508 1510 1512 1513 1515 1516 1517 1518 1519 1521 1522 1524 1525 1526 1528 1529 1530 1532 1533 1534
1502 1504 1505 1505 1504 1505 1505 1502 1498 1497 1497 1496 1496 1495 1495 1495 1495 1495 1496 1496 1496 1497 1498 1499 1500 1501 1503 1504 1505 1506 1508 1509 1511 1512 1513 1515 1516 1517 1518 1519 1521 1522 1523 1525 1526 1527 1529 1530 1531
1501 1503 1504 1506 1506 1506 1507 1500 1497 1494 1494 1494 1493 1493 1493 1492 1492 1492 1493 1493 1494 1495 1496 1497 1498 1499 1501 1502 1503 1504 1505 1506 1508 1508 1510 1511 1513 1514 1515 1517 1518 1519 1520 1521 1523 1524 1526 1527 1528
1500 1501 1502 1504 1508 1510 1509 1506 1495 1494 1493 1491 1490 1490 1489 1489 1490 1490 1490 1491 1492 1493 1494 1495 1496 1497 1498 1499 1500 1501 1502 1503 1504 1506 1507 1508 1509 1510 1512 1513 1514 1516 1517 1518 1520 1521 1523 1524 1525
1500 1501 1502 1504 1507 1512 1512 1511 1497 1495 1493 1489 1488 1487 1487 1487 1487 1487 1488 1489 1490 1491 1493 1494 1495 1496 1496 1497 1499 1499 1500 1501 1502 1503 1504 1505 1506 1507 1508 1510 1511 1512 1513 1515 1516 1517 1519 1520 1522
1500 1502 1504 1508 1510 1510 1509 1511 1499 1495 1489 1486 1485 1485 1484 1484 1485 1485 1486 1487 1488 1489 1490 1492 1492 1493 1494 1495 1496 1497 1498 1498 1499 1500 1500 1502 1503 1504 1505 1506 1507 1508 1509 1511 1512 1513 1515 1516 1518
1501 1505 1510 1509 1513 1507 1508 1508 1497 1488 1486 1485 1484 1483 1482 1482 1482 1483 1484 1484 1486 1487 1488 1489 1490 1491 1492 1493 1494 1495 1495 1496 1497 1497 1498 1499 1500 1501 1502 1503 1504 1505 1506 1507 1508 1510 1511 1512 1514
1502 1503 1508 1510 1509 1507 1508 1504 1492 1486 1484 1483 1483 1482 1481 1481 1481 1481 1482 1483 1483 1485 1486 1487 1487 1489 1489 1490 1491 1492 1492 1493 1494 1495 1496 1496 1497 1498 1499 1500 1501 1502 1503 1504 1505 1506 1507 1509 1510
1502 1506 1506 1514 1519 1517 1505 1501 1492 1484 1483 1482 1481 1480 1480 1480 1480 1480 1481 1481 1482 1482 1483 1484 1485 1486 1487 1488 1488 1489 1490 1490 1491 1492 1493 1494 1494 1495 1496 1497 1498 1498 1499 1500 1501 1502 1503 1505 1506
1502 1505 1511 1512 1510 1508 1503 1501 1492 1484 1482 1481 1480 1479 1479 1479 1479 1479 1479 1479 1480 1481 1481 1482 1483 1484 1484 1485 1486 1486 1487 1487 1488 1489 1489 1490 1491 1492 1493 1494 1494 1495 1496 1496 1497 1498 1499 1500 1501
1504 1507 1508 1512 1512 1510 1507 1495 1484 1482 1480 1480 1479 1478 1478 1478 1478 1477 1478 1478 1478 1479 1479 1479 1480 1481 1481 1482 1483 1483 1484 1485 1485 1486 1486 1487 1488 1489 1490 1490 1491 1491 1492 1493 1493 1494 1495 1495 1496
1503 1504 1507 1507 1509 1514 1511 1496 1480 1480 1479 1479 1479 1477 1477 1477 1476 1476 1476 1476 1476 1476 1476 1477 1477 1478 1479 1479 1480 1480 1481 1481 1482 1482 1483 1484 1484 1485 1486 1486 1487 1487 1488 1488 1489 1489 1490 1491 1491